Kuiper-00081

operational
NORAD ID: 65132 Int'l Des: 2025-171 Owner: KUIP Country: US Constellation: kuiper
LEOCIRCULAR

About Kuiper-00081

Description loading...

Live Position

Loading 3D Globe...

Upcoming Passes

Altitude History

Altitude vs Time

uPlot chart will show altitude changes over time

Two-Line Element Set

1 65132U 25171A 25315.33336806 .00029084 00000-0 85533-3 0 9991
2 65132 51.8757 321.0501 0005774 78.2724 286.9461 15.34844713 5828
Epoch: Nov 11, 2025 • Age: 13 hours

Current Status

Altitude 462.9 km
Velocity 7.64 km/s
Sub-Earth Point 49.31°N, 20.38°E
Launch Date Aug 11, 2025
Age 0.2 years
Type internet

Technical Details

Classification Payload
Mass 490.00 kg
Dry Mass 490.00 kg
Total Mass 490.00 kg
Length 1.80 m
Diameter 0.70 m
Span 5.00 m
Shape Box + 2 pan
Manufacturer KUIP
Bus Type Kuiper
Phase Status In Orbit
Owner/State KUIP/US

Large Constellations

Loading constellations...